"Period start","avg(HW err(1)/warn(2) (#))","avg(Visibility (m))","avg(Weather code (#))","avg(Precip intensity (mm/h))","min(HW err(1)/warn(2) (#))","max(HW err(1)/warn(2) (#))","std(HW err(1)/warn(2) (#))","med(HW err(1)/warn(2) (#))","min(Visibility (m))","max(Visibility (m))","std(Visibility (m))","med(Visibility (m))","min(Weather code (#))","max(Weather code (#))","std(Weather code (#))","med(Weather code (#))","min(Precip intensity (mm/h))","max(Precip intensity (mm/h))","std(Precip intensity (mm/h))","med(Precip intensity (mm/h))"
2014-09-21 00:00:00,2,17512,0,0.00,2,2,0,2,15715,19510,1380,17270,0,0,0,0,0.00,0.00,0.00,0.00
2014-09-21 00:10:00,2,19738,0,0.00,2,2,0,2,17622,21217,1141,20026,0,0,0,0,0.00,0.00,0.00,0.00
2014-09-21 00:20:00,2,19211,0,0.00,2,2,0,2,14648,21732,2013,19834,0,0,0,0,0.00,0.00,0.00,0.00
2014-09-21 00:30:00,2,13500,45,2.06,2,2,0,2,10680,18971,2332,13704,0,61,24,61,0.00,6.45,1.85,1.85
2014-09-21 00:40:00,2,9865,61,4.87,2,2,0,2,8020,13061,1591,9392,61,61,0,61,2.55,6.75,1.20,5.05
2014-09-21 00:50:00,2,9138,61,6.40,2,2,0,2,7957,9920,561,9313,61,62,0,61,2.90,10.20,2.26,6.03
2014-09-21 01:00:00,2,7586,61,8.19,2,2,0,2,5843,9276,945,7569,61,62,0,61,4.70,13.40,2.86,7.85
2014-09-21 01:10:00,2,7713,61,9.60,2,2,0,2,6951,8217,425,7870,61,62,0,61,6.35,18.25,3.30,9.20
2014-09-21 01:20:00,2,7900,61,5.38,2,2,0,2,7062,8446,441,7958,61,61,0,61,2.95,7.90,1.58,5.58
2014-09-21 01:30:00,2,6727,61,7.52,2,2,0,2,6068,7464,380,6713,61,62,0,61,5.40,10.15,1.55,7.33
2014-09-21 01:40:00,2,6466,61,6.16,2,2,0,2,5649,6942,406,6648,61,62,0,61,3.60,10.15,2.00,6.00
2014-09-21 01:50:00,2,4931,61,7.25,2,2,0,2,3619,5896,688,4846,61,62,0,61,2.65,10.60,2.25,7.60
2014-09-21 02:00:00,2,6535,61,6.43,2,2,0,2,5477,7156,447,6524,61,62,0,61,2.65,11.50,2.82,6.00
2014-09-21 02:10:00,2,6574,61,3.93,2,2,0,2,5476,7440,618,6628,61,61,0,61,2.65,5.00,0.81,3.90
2014-09-21 02:20:00,2,5510,59,3.45,2,2,0,2,5091,5962,283,5417,52,61,4,61,2.40,4.70,0.72,3.30
2014-09-21 02:30:00,2,5574,52,2.85,2,2,0,2,4847,7017,792,5182,52,52,0,52,1.10,3.95,0.81,3.12
2014-09-21 02:40:00,2,7126,53,2.03,2,2,0,2,6368,7512,359,7180,52,61,3,52,0.95,3.50,0.85,1.67
2014-09-21 02:50:00,2,8603,59,2.66,2,2,0,2,7174,9884,679,8542,52,61,4,61,1.55,4.30,0.74,2.50
2014-09-21 03:00:00,2,8552,60,1.31,2,2,0,2,7989,8938,310,8689,52,61,3,61,0.70,2.00,0.40,1.43
2014-09-21 03:10:00,2,7409,48,1.48,2,2,0,2,6490,8286,575,7379,10,52,13,52,0.00,3.20,0.97,1.28
2014-09-21 03:20:00,2,7460,35,0.03,2,2,0,2,6927,8263,387,7424,10,41,12,41,0.00,0.10,0.03,0.00
2014-09-21 03:30:00,2,7562,10,0.00,2,2,0,2,6515,8856,724,7816,10,10,0,10,0.00,0.00,0.00,0.00
2014-09-21 03:40:00,2,9237,10,0.00,2,2,0,2,8558,10088,421,9265,10,10,0,10,0.00,0.00,0.00,0.00
2014-09-21 03:50:00,2,11353,10,0.00,2,2,0,2,10499,12124,491,11380,10,10,0,10,0.00,0.00,0.00,0.00
2014-09-21 04:00:00,2,10712,33,0.27,2,2,0,2,6225,13841,2362,11081,0,61,27,40,0.00,0.80,0.29,0.12
2014-09-21 04:10:00,2,12764,29,0.03,2,2,0,2,7451,17239,3551,12804,0,61,24,41,0.00,0.25,0.08,0.00
2014-09-21 04:20:00,2,18732,0,0.00,2,2,0,2,9644,27315,5675,20871,0,0,0,0,0.00,0.00,0.00,0.00
2014-09-21 04:30:00,2,25716,25,0.17,2,2,0,2,7284,50000,15357,24421,0,41,20,41,0.00,0.75,0.27,0.00
2014-09-21 04:40:00,2,49996,0,0.00,2,2,0,2,49961,50000,12,50000,0,0,0,0,0.00,0.00,0.00,0.00
2014-09-21 04:50:00,2,49964,0,0.00,2,2,0,2,49644,50000,107,50000,0,0,0,0,0.00,0.00,0.00,0.00
2014-09-21 05:00:00,2,49915,0,0.00,2,2,0,2,49414,50000,184,50000,0,0,0,0,0.00,0.00,0.00,0.00
2014-09-21 05:10:00,2,49643,0,0.00,2,2,0,2,46585,50000,1020,50000,0,0,0,0,0.00,0.00,0.00,0.00
2014-09-21 05:20:00,2,47316,0,0.00,2,2,0,2,35231,50000,4680,50000,0,0,0,0,0.00,0.00,0.00,0.00
2014-09-21 05:30:00,2,49987,0,0.00,2,2,0,2,49869,50000,39,50000,0,0,0,0,0.00,0.00,0.00,0.00
2014-09-21 05:40:00,2,50000,0,0.00,2,2,0,2,50000,50000,0,50000,0,0,0,0,0.00,0.00,0.00,0.00
2014-09-21 05:50:00,2,49638,0,0.00,2,2,0,2,47217,50000,845,50000,0,0,0,0,0.00,0.00,0.00,0.00
2014-09-21 06:00:00,2,44967,0,0.00,2,2,0,2,32378,50000,5924,47264,0,0,0,0,0.00,0.00,0.00,0.00
2014-09-21 06:10:00,2,49804,0,0.00,2,2,0,2,48042,50000,587,50000,0,0,0,0,0.00,0.00,0.00,0.00
2014-09-21 06:20:00,2,49235,0,0.00,2,2,0,2,44151,50000,1778,50000,0,0,0,0,0.00,0.00,0.00,0.00
2014-09-21 06:30:00,2,49776,0,0.00,2,2,0,2,48820,50000,381,50000,0,0,0,0,0.00,0.00,0.00,0.00
2014-09-21 06:40:00,2,49858,0,0.00,2,2,0,2,49136,50000,292,50000,0,0,0,0,0.00,0.00,0.00,0.00
2014-09-21 06:50:00,2,49152,0,0.00,2,2,0,2,46647,50000,1312,50000,0,0,0,0,0.00,0.00,0.00,0.00
2014-09-21 07:00:00,2,49956,0,0.00,2,2,0,2,49555,50000,134,50000,0,0,0,0,0.00,0.00,0.00,0.00
2014-09-21 07:10:00,2,49898,0,0.00,2,2,0,2,48982,50000,305,50000,0,0,0,0,0.00,0.00,0.00,0.00
2014-09-21 07:20:00,2,49768,0,0.00,2,2,0,2,48713,50000,467,50000,0,0,0,0,0.00,0.00,0.00,0.00
2014-09-21 07:30:00,2,50000,0,0.00,2,2,0,2,50000,50000,0,50000,0,0,0,0,0.00,0.00,0.00,0.00
2014-09-21 07:40:00,2,50000,0,0.00,2,2,0,2,50000,50000,0,50000,0,0,0,0,0.00,0.00,0.00,0.00
2014-09-21 07:50:00,2,49806,0,0.00,2,2,0,2,48063,50000,581,50000,0,0,0,0,0.00,0.00,0.00,0.00
2014-09-21 08:00:00,2,50000,0,0.00,2,2,0,2,50000,50000,0,50000,0,0,0,0,0.00,0.00,0.00,0.00
2014-09-21 08:10:00,2,49938,0,0.00,2,2,0,2,49378,50000,187,50000,0,0,0,0,0.00,0.00,0.00,0.00
2014-09-21 08:20:00,2,50000,0,0.00,2,2,0,2,50000,50000,0,50000,0,0,0,0,0.00,0.00,0.00,0.00
2014-09-21 08:30:00,2,50000,0,0.00,2,2,0,2,50000,50000,0,50000,0,0,0,0,0.00,0.00,0.00,0.00
2014-09-21 08:40:00,2,50000,0,0.00,2,2,0,2,50000,50000,0,50000,0,0,0,0,0.00,0.00,0.00,0.00
2014-09-21 08:50:00,2,50000,0,0.00,2,2,0,2,50000,50000,0,50000,0,0,0,0,0.00,0.00,0.00,0.00
2014-09-21 09:00:00,2,50000,0,0.00,2,2,0,2,50000,50000,0,50000,0,0,0,0,0.00,0.00,0.00,0.00
2014-09-21 09:10:00,2,49944,0,0.00,2,2,0,2,49444,50000,167,50000,0,0,0,0,0.00,0.00,0.00,0.00
2014-09-21 09:20:00,2,50000,0,0.00,2,2,0,2,50000,50000,0,50000,0,0,0,0,0.00,0.00,0.00,0.00
2014-09-21 09:30:00,2,50000,0,0.00,2,2,0,2,50000,50000,0,50000,0,0,0,0,0.00,0.00,0.00,0.00
2014-09-21 09:40:00,2,50000,0,0.00,2,2,0,2,50000,50000,0,50000,0,0,0,0,0.00,0.00,0.00,0.00
2014-09-21 09:50:00,2,50000,0,0.00,2,2,0,2,50000,50000,0,50000,0,0,0,0,0.00,0.00,0.00,0.00
2014-09-21 10:00:00,2,50000,0,0.00,2,2,0,2,50000,50000,0,50000,0,0,0,0,0.00,0.00,0.00,0.00
2014-09-21 10:10:00,2,50000,0,0.00,2,2,0,2,50000,50000,0,50000,0,0,0,0,0.00,0.00,0.00,0.00
2014-09-21 10:20:00,2,50000,0,0.00,2,2,0,2,50000,50000,0,50000,0,0,0,0,0.00,0.00,0.00,0.00
2014-09-21 10:30:00,2,50000,0,0.00,2,2,0,2,50000,50000,0,50000,0,0,0,0,0.00,0.00,0.00,0.00
2014-09-21 10:40:00,2,49963,0,0.00,2,2,0,2,49633,50000,110,50000,0,0,0,0,0.00,0.00,0.00,0.00
2014-09-21 10:50:00,2,50000,0,0.00,2,2,0,2,50000,50000,0,50000,0,0,0,0,0.00,0.00,0.00,0.00
2014-09-21 11:00:00,2,50000,0,0.00,2,2,0,2,50000,50000,0,50000,0,0,0,0,0.00,0.00,0.00,0.00
2014-09-21 11:10:00,2,50000,0,0.00,2,2,0,2,50000,50000,0,50000,0,0,0,0,0.00,0.00,0.00,0.00
2014-09-21 11:20:00,2,50000,0,0.00,2,2,0,2,50000,50000,0,50000,0,0,0,0,0.00,0.00,0.00,0.00
2014-09-21 11:30:00,2,50000,0,0.00,2,2,0,2,50000,50000,0,50000,0,0,0,0,0.00,0.00,0.00,0.00
2014-09-21 11:40:00,2,50000,0,0.00,2,2,0,2,50000,50000,0,50000,0,0,0,0,0.00,0.00,0.00,0.00
2014-09-21 11:50:00,2,50000,0,0.00,2,2,0,2,50000,50000,0,50000,0,0,0,0,0.00,0.00,0.00,0.00
2014-09-21 12:00:00,2,50000,0,0.00,2,2,0,2,50000,50000,0,50000,0,0,0,0,0.00,0.00,0.00,0.00
2014-09-21 12:10:00,2,50000,0,0.00,2,2,0,2,50000,50000,0,50000,0,0,0,0,0.00,0.00,0.00,0.00
2014-09-21 12:20:00,2,50000,0,0.00,2,2,0,2,50000,50000,0,50000,0,0,0,0,0.00,0.00,0.00,0.00
2014-09-21 12:30:00,2,50000,0,0.00,2,2,0,2,50000,50000,0,50000,0,0,0,0,0.00,0.00,0.00,0.00
2014-09-21 12:40:00,2,50000,0,0.00,2,2,0,2,50000,50000,0,50000,0,0,0,0,0.00,0.00,0.00,0.00
2014-09-21 12:50:00,2,50000,0,0.00,2,2,0,2,50000,50000,0,50000,0,0,0,0,0.00,0.00,0.00,0.00
2014-09-21 13:00:00,2,50000,0,0.00,2,2,0,2,50000,50000,0,50000,0,0,0,0,0.00,0.00,0.00,0.00
2014-09-21 13:10:00,2,50000,0,0.00,2,2,0,2,50000,50000,0,50000,0,0,0,0,0.00,0.00,0.00,0.00
2014-09-21 13:20:00,2,50000,0,0.00,2,2,0,2,50000,50000,0,50000,0,0,0,0,0.00,0.00,0.00,0.00
2014-09-21 13:30:00,2,49877,0,0.00,2,2,0,2,48770,50000,369,50000,0,0,0,0,0.00,0.00,0.00,0.00
2014-09-21 13:40:00,2,50000,0,0.00,2,2,0,2,50000,50000,0,50000,0,0,0,0,0.00,0.00,0.00,0.00
2014-09-21 13:50:00,2,50000,0,0.00,2,2,0,2,50000,50000,0,50000,0,0,0,0,0.00,0.00,0.00,0.00
2014-09-21 14:00:00,2,49743,0,0.00,2,2,0,2,47429,50000,771,50000,0,0,0,0,0.00,0.00,0.00,0.00
2014-09-21 14:10:00,2,50000,0,0.00,2,2,0,2,50000,50000,0,50000,0,0,0,0,0.00,0.00,0.00,0.00
2014-09-21 14:20:00,2,50000,0,0.00,2,2,0,2,50000,50000,0,50000,0,0,0,0,0.00,0.00,0.00,0.00
2014-09-21 14:30:00,2,50000,0,0.00,2,2,0,2,50000,50000,0,50000,0,0,0,0,0.00,0.00,0.00,0.00
2014-09-21 14:40:00,2,50000,0,0.00,2,2,0,2,50000,50000,0,50000,0,0,0,0,0.00,0.00,0.00,0.00
2014-09-21 14:50:00,2,50000,0,0.00,2,2,0,2,50000,50000,0,50000,0,0,0,0,0.00,0.00,0.00,0.00
2014-09-21 15:00:00,2,50000,0,0.00,2,2,0,2,50000,50000,0,50000,0,0,0,0,0.00,0.00,0.00,0.00
2014-09-21 15:10:00,2,50000,0,0.00,2,2,0,2,50000,50000,0,50000,0,0,0,0,0.00,0.00,0.00,0.00
2014-09-21 15:20:00,2,50000,0,0.00,2,2,0,2,50000,50000,0,50000,0,0,0,0,0.00,0.00,0.00,0.00
2014-09-21 15:30:00,2,50000,0,0.00,2,2,0,2,50000,50000,0,50000,0,0,0,0,0.00,0.00,0.00,0.00
2014-09-21 15:40:00,2,50000,0,0.00,2,2,0,2,50000,50000,0,50000,0,0,0,0,0.00,0.00,0.00,0.00
2014-09-21 15:50:00,2,50000,0,0.00,2,2,0,2,50000,50000,0,50000,0,0,0,0,0.00,0.00,0.00,0.00
2014-09-21 16:00:00,2,50000,0,0.00,2,2,0,2,50000,50000,0,50000,0,0,0,0,0.00,0.00,0.00,0.00
2014-09-21 16:10:00,2,50000,0,0.00,2,2,0,2,50000,50000,0,50000,0,0,0,0,0.00,0.00,0.00,0.00
2014-09-21 16:20:00,2,50000,0,0.00,2,2,0,2,50000,50000,0,50000,0,0,0,0,0.00,0.00,0.00,0.00
2014-09-21 16:30:00,2,50000,0,0.00,2,2,0,2,50000,50000,0,50000,0,0,0,0,0.00,0.00,0.00,0.00
2014-09-21 16:40:00,2,50000,0,0.00,2,2,0,2,50000,50000,0,50000,0,0,0,0,0.00,0.00,0.00,0.00
2014-09-21 16:50:00,2,50000,0,0.00,2,2,0,2,50000,50000,0,50000,0,0,0,0,0.00,0.00,0.00,0.00
2014-09-21 17:00:00,2,50000,0,0.00,2,2,0,2,50000,50000,0,50000,0,0,0,0,0.00,0.00,0.00,0.00
2014-09-21 17:10:00,2,50000,0,0.00,2,2,0,2,50000,50000,0,50000,0,0,0,0,0.00,0.00,0.00,0.00
2014-09-21 17:20:00,2,50000,0,0.00,2,2,0,2,50000,50000,0,50000,0,0,0,0,0.00,0.00,0.00,0.00
2014-09-21 17:30:00,2,50000,0,0.00,2,2,0,2,50000,50000,0,50000,0,0,0,0,0.00,0.00,0.00,0.00
2014-09-21 17:40:00,2,50000,0,0.00,2,2,0,2,50000,50000,0,50000,0,0,0,0,0.00,0.00,0.00,0.00
2014-09-21 17:50:00,2,50000,0,0.00,2,2,0,2,50000,50000,0,50000,0,0,0,0,0.00,0.00,0.00,0.00
2014-09-21 18:00:00,2,50000,0,0.00,2,2,0,2,50000,50000,0,50000,0,0,0,0,0.00,0.00,0.00,0.00
2014-09-21 18:10:00,2,50000,0,0.00,2,2,0,2,50000,50000,0,50000,0,0,0,0,0.00,0.00,0.00,0.00
2014-09-21 18:20:00,2,50000,0,0.00,2,2,0,2,50000,50000,0,50000,0,0,0,0,0.00,0.00,0.00,0.00
2014-09-21 18:30:00,2,49930,0,0.00,2,2,0,2,49300,50000,210,50000,0,0,0,0,0.00,0.00,0.00,0.00
2014-09-21 18:40:00,2,50000,0,0.00,2,2,0,2,50000,50000,0,50000,0,0,0,0,0.00,0.00,0.00,0.00
2014-09-21 18:50:00,2,50000,0,0.00,2,2,0,2,50000,50000,0,50000,0,0,0,0,0.00,0.00,0.00,0.00
2014-09-21 19:00:00,2,50000,0,0.00,2,2,0,2,50000,50000,0,50000,0,0,0,0,0.00,0.00,0.00,0.00
2014-09-21 19:10:00,2,50000,0,0.00,2,2,0,2,50000,50000,0,50000,0,0,0,0,0.00,0.00,0.00,0.00
2014-09-21 19:20:00,2,50000,0,0.00,2,2,0,2,50000,50000,0,50000,0,0,0,0,0.00,0.00,0.00,0.00
2014-09-21 19:30:00,2,50000,0,0.00,2,2,0,2,50000,50000,0,50000,0,0,0,0,0.00,0.00,0.00,0.00
2014-09-21 19:40:00,2,50000,0,0.00,2,2,0,2,50000,50000,0,50000,0,0,0,0,0.00,0.00,0.00,0.00
2014-09-21 19:50:00,2,50000,0,0.00,2,2,0,2,50000,50000,0,50000,0,0,0,0,0.00,0.00,0.00,0.00
2014-09-21 20:00:00,2,50000,0,0.00,2,2,0,2,50000,50000,0,50000,0,0,0,0,0.00,0.00,0.00,0.00
2014-09-21 20:10:00,2,50000,0,0.00,2,2,0,2,50000,50000,0,50000,0,0,0,0,0.00,0.00,0.00,0.00
2014-09-21 20:20:00,2,50000,0,0.00,2,2,0,2,50000,50000,0,50000,0,0,0,0,0.00,0.00,0.00,0.00
2014-09-21 20:30:00,2,49989,0,0.00,2,2,0,2,49894,50000,32,50000,0,0,0,0,0.00,0.00,0.00,0.00
2014-09-21 20:40:00,2,49957,0,0.00,2,2,0,2,49573,50000,128,50000,0,0,0,0,0.00,0.00,0.00,0.00
2014-09-21 20:50:00,2,50000,0,0.00,2,2,0,2,50000,50000,0,50000,0,0,0,0,0.00,0.00,0.00,0.00
2014-09-21 21:00:00,2,50000,0,0.00,2,2,0,2,50000,50000,0,50000,0,0,0,0,0.00,0.00,0.00,0.00
2014-09-21 21:10:00,2,49987,0,0.00,2,2,0,2,49875,50000,37,50000,0,0,0,0,0.00,0.00,0.00,0.00
2014-09-21 21:20:00,2,49866,0,0.00,2,2,0,2,48663,50000,401,50000,0,0,0,0,0.00,0.00,0.00,0.00
2014-09-21 21:30:00,2,50000,0,0.00,2,2,0,2,50000,50000,0,50000,0,0,0,0,0.00,0.00,0.00,0.00
2014-09-21 21:40:00,2,50000,0,0.00,2,2,0,2,50000,50000,0,50000,0,0,0,0,0.00,0.00,0.00,0.00
2014-09-21 21:50:00,2,49700,0,0.00,2,2,0,2,47525,50000,734,50000,0,0,0,0,0.00,0.00,0.00,0.00
2014-09-21 22:00:00,2,50000,0,0.00,2,2,0,2,50000,50000,0,50000,0,0,0,0,0.00,0.00,0.00,0.00
2014-09-21 22:10:00,2,49970,0,0.00,2,2,0,2,49702,50000,89,50000,0,0,0,0,0.00,0.00,0.00,0.00
2014-09-21 22:20:00,2,50000,0,0.00,2,2,0,2,50000,50000,0,50000,0,0,0,0,0.00,0.00,0.00,0.00
2014-09-21 22:30:00,2,50000,0,0.00,2,2,0,2,50000,50000,0,50000,0,0,0,0,0.00,0.00,0.00,0.00
2014-09-21 22:40:00,2,49860,0,0.00,2,2,0,2,48604,50000,419,50000,0,0,0,0,0.00,0.00,0.00,0.00
2014-09-21 22:50:00,2,49972,0,0.00,2,2,0,2,49715,50000,86,50000,0,0,0,0,0.00,0.00,0.00,0.00
2014-09-21 23:00:00,2,50000,0,0.00,2,2,0,2,50000,50000,0,50000,0,0,0,0,0.00,0.00,0.00,0.00
2014-09-21 23:10:00,2,49568,0,0.00,2,2,0,2,45791,50000,1260,50000,0,0,0,0,0.00,0.00,0.00,0.00
2014-09-21 23:20:00,2,50000,0,0.00,2,2,0,2,50000,50000,0,50000,0,0,0,0,0.00,0.00,0.00,0.00
2014-09-21 23:30:00,2,50000,0,0.00,2,2,0,2,50000,50000,0,50000,0,0,0,0,0.00,0.00,0.00,0.00
2014-09-21 23:40:00,2,45181,0,0.00,2,2,0,2,28062,50000,5933,46811,0,0,0,0,0.00,0.00,0.00,0.00
2014-09-21 23:50:00,2,44167,0,0.00,2,2,0,2,36182,50000,4745,45062,0,0,0,0,0.00,0.00,0.00,0.00
